Location: Gälforsberget
(66.6500°N, 22.4167°E)
Time: 12:10:45
(UTC+00:00)

Cosmos 1666 Rocket - Pass Details

Date: 11 April 2026
Orbit: 598 x 624 km, 82.5° (Epoch: 10 May)

Event Time Altitude Azimuth Distance (km) Brightness Sun altitude
Rises 18:53:06 0° 207° (SSW) 2,844 6.9 -5.2°
Reaches altitude 10° 18:55:19 10° 210° (SSW) 1,946 6.1 -5.4°
Maximum altitude 18:59:35 66° 293° (WNW) 662 4.0 -5.7°
Drops below altitude 10° 19:03:55 10° 17° (NNE) 1,967 6.4 -6.1°
Sets 19:06:10 0° 20° (NNE) 2,878 7.3 -6.2°
